Barnwell, SC

4:25 PM EST on November 20, 2017 (GMT -0500)
Barnwell County

Weather History for KBNL - November, 2012

Change the Weather History Date:

Sunday, November 18, 2012

  Actual Average (KOGB) Record (KOGB)
Temperature  
Mean Temperature 54 °F -  
Max Temperature 59 °F 66 °F 85 °F (1958)
Min Temperature 50 °F 41 °F 25 °F (2014)
Degree Days  
Heating Degree Days 10    
Growing Degree Days 4 (Base 50)    
Moisture  
Dew Point 43 °F    
Average Humidity 65    
Maximum Humidity 77    
Minimum Humidity 54    
Precipitation  
Precipitation 0.00 in - - ()
Sea Level Pressure  
Sea Level Pressure 30.31 in    
Wind  
Wind Speed 11 mph (North)    
Max Wind Speed 15 mph    
Max Gust Speed 26 mph    
Visibility 10 miles    
Events      
Averages and records for this station are not official NWS values.
T = Trace of Precipitation, MM = Missing Value Source: NWS Daily Summary

Daily Weather History Graph

Daily Weather History Graph

Search for Another Location

Airport or City:

Trip Planner

Search our weather history database for the weather conditions in past years. The results will help you decide how hot, cold, wet, or windy it might be!

Date:

Astronomy

Nov. 18, 2012 Rise Set
Actual Time 6:59 AM EST 5:21 PM EST
Civil Twilight 6:33 AM EST 5:48 PM EST
Nautical Twilight 6:03 AM EST 6:18 PM EST
Astronomical Twilight 5:33 AM EST 6:47 PM EST
Moon 11:28 AM EST (11/18) 10:35 PM EST (11/18)
Length of Visible Light 11h 14m
Length of Day
10h 21m
Waxing Crescent, 30% of the Moon is Illuminated
Nov 18
Waxing Crescent
Nov 20
First Quarter
Nov 28
Full
Dec 6
Last Quarter
Dec 13
New

Hourly Weather History & Observations

Time (EST) Temp. Dew Point Humidity Pressure Visibility Wind Dir Wind Speed Gust Speed Precip Events Conditions
12:15 AM 53.6 °F 37.4 °F 54% 30.35 in 10.0 mi NNE 10.4 mph - N/A   Overcast
12:35 AM 53.6 °F 37.4 °F 54% 30.35 in 10.0 mi NNE 10.4 mph - N/A   Overcast
12:55 AM 53.6 °F 37.4 °F 54% 30.34 in 10.0 mi NNE 10.4 mph - N/A   Overcast
1:15 AM 51.8 °F 37.4 °F 58% 30.33 in 10.0 mi NNE 13.8 mph 17.3 mph N/A   Mostly Cloudy
1:35 AM 51.8 °F 37.4 °F 58% 30.33 in 10.0 mi NNE 9.2 mph - N/A   Partly Cloudy
2:15 AM 51.8 °F 37.4 °F 58% 30.33 in 10.0 mi NNE 11.5 mph - N/A   Overcast
2:35 AM 51.8 °F 37.4 °F 58% 30.33 in 10.0 mi NNE 11.5 mph - N/A   Overcast
3:15 AM 51.8 °F 35.6 °F 54% 30.32 in 10.0 mi NNE 13.8 mph 21.9 mph N/A   Overcast
3:35 AM 51.8 °F 35.6 °F 54% 30.32 in 10.0 mi NNE 15.0 mph 23.0 mph N/A   Overcast
3:55 AM 51.8 °F 37.4 °F 58% 30.31 in 10.0 mi NNE 13.8 mph 24.2 mph N/A   Overcast
4:15 AM 51.8 °F 37.4 °F 58% 30.32 in 10.0 mi NNE 11.5 mph - N/A   Overcast
4:35 AM 51.8 °F 37.4 °F 58% 30.32 in 10.0 mi NNE 11.5 mph - N/A   Overcast
4:55 AM 51.8 °F 37.4 °F 58% 30.33 in 10.0 mi NNE 6.9 mph 16.1 mph N/A   Overcast
5:15 AM 51.8 °F 37.4 °F 58% 30.34 in 10.0 mi NNE 8.1 mph - N/A   Overcast
5:35 AM 51.8 °F 39.2 °F 62% 30.34 in 10.0 mi North 10.4 mph - N/A   Overcast
5:55 AM 51.8 °F 39.2 °F 62% 30.34 in 10.0 mi NNE 12.7 mph - N/A   Overcast
6:15 AM 51.8 °F 39.2 °F 62% 30.34 in 10.0 mi North 11.5 mph 17.3 mph N/A   Overcast
6:35 AM 50.0 °F 39.2 °F 66% 30.33 in 10.0 mi NNE 12.7 mph 17.3 mph N/A   Mostly Cloudy
6:55 AM 51.8 °F 41.0 °F 67% 30.34 in 10.0 mi NNE 12.7 mph 18.4 mph N/A   Mostly Cloudy
7:15 AM 51.8 °F 41.0 °F 67% 30.34 in 10.0 mi North 10.4 mph - N/A   Mostly Cloudy
7:35 AM 50.0 °F 41.0 °F 71% 30.34 in 10.0 mi North 9.2 mph - N/A   Scattered Clouds
7:55 AM 51.8 °F 41.0 °F 67% 30.35 in 10.0 mi NNE 10.4 mph - N/A   Mostly Cloudy
8:15 AM 51.8 °F 41.0 °F 67% 30.35 in 10.0 mi NNE 12.7 mph 17.3 mph N/A   Overcast
8:35 AM 51.8 °F 42.8 °F 71% 30.35 in 10.0 mi NNE 13.8 mph 21.9 mph N/A   Overcast
8:55 AM 51.8 °F 42.8 °F 71% 30.36 in 10.0 mi NNE 15.0 mph 20.7 mph N/A   Overcast
9:15 AM 51.8 °F 42.8 °F 71% 30.36 in 10.0 mi NNE 15.0 mph 23.0 mph N/A   Overcast
9:35 AM 51.8 °F 42.8 °F 71% 30.36 in 10.0 mi North 12.7 mph 17.3 mph N/A   Overcast
10:15 AM 51.8 °F 42.8 °F 71% 30.36 in 10.0 mi NNE 12.7 mph 23.0 mph N/A   Overcast
10:35 AM 51.8 °F 42.8 °F 71% 30.35 in 10.0 mi NNE 15.0 mph 20.7 mph N/A   Overcast
10:55 AM 53.6 °F 42.8 °F 67% 30.35 in 10.0 mi North 13.8 mph 17.3 mph N/A   Overcast
11:15 AM 53.6 °F 42.8 °F 67% 30.35 in 10.0 mi North 10.4 mph - N/A   Overcast
11:35 AM 53.6 °F 44.6 °F 72% 30.35 in 10.0 mi North 10.4 mph 19.6 mph N/A   Overcast
12:15 PM 53.6 °F 44.6 °F 72% 30.33 in 10.0 mi North 9.2 mph - N/A   Overcast
12:35 PM 53.6 °F 44.6 °F 72% 30.32 in 10.0 mi North 12.7 mph 19.6 mph N/A   Overcast
12:55 PM 53.6 °F 44.6 °F 72% 30.31 in 9.0 mi NNE 13.8 mph - N/A   Mostly Cloudy
1:15 PM 55.4 °F 44.6 °F 67% 30.30 in 10.0 mi North 13.8 mph - N/A   Mostly Cloudy
1:35 PM 55.4 °F 44.6 °F 67% 30.29 in 10.0 mi North 11.5 mph - N/A   Mostly Cloudy
1:55 PM 57.2 °F 44.6 °F 63% 30.28 in 10.0 mi North 13.8 mph 19.6 mph N/A   Mostly Cloudy
2:15 PM 57.2 °F 46.4 °F 67% 30.27 in 10.0 mi North 12.7 mph 20.7 mph N/A   Mostly Cloudy
2:35 PM 59.0 °F 46.4 °F 63% 30.26 in 10.0 mi North 11.5 mph 17.3 mph N/A   Scattered Clouds
2:55 PM 59.0 °F 46.4 °F 63% 30.26 in 10.0 mi NNW 13.8 mph 17.3 mph N/A   Mostly Cloudy
3:15 PM 59.0 °F 46.4 °F 63% 30.26 in 10.0 mi North 11.5 mph 20.7 mph N/A   Mostly Cloudy
3:35 PM 59.0 °F 46.4 °F 63% 30.26 in 10.0 mi North 8.1 mph 17.3 mph N/A   Overcast
3:55 PM 59.0 °F 48.2 °F 67% 30.26 in 10.0 mi North 6.9 mph - N/A   Overcast
4:15 PM 59.0 °F 48.2 °F 67% 30.26 in 10.0 mi NNW 9.2 mph - N/A   Overcast
4:35 PM 59.0 °F 46.4 °F 63% 30.26 in 10.0 mi NNW 5.8 mph - N/A   Overcast
4:55 PM 59.0 °F 46.4 °F 63% 30.26 in 10.0 mi North 9.2 mph 16.1 mph N/A   Overcast
5:15 PM 57.2 °F 46.4 °F 67% 30.26 in 10.0 mi NW 5.8 mph - N/A   Overcast
5:35 PM 57.2 °F 46.4 °F 67% 30.27 in 10.0 mi NNW 6.9 mph - N/A   Overcast
6:15 PM 57.2 °F 46.4 °F 67% 30.27 in 10.0 mi North 13.8 mph 18.4 mph N/A   Overcast
6:35 PM 57.2 °F 46.4 °F 67% 30.27 in 10.0 mi North 9.2 mph 16.1 mph N/A   Overcast
6:55 PM 57.2 °F 46.4 °F 67% 30.28 in 10.0 mi North 10.4 mph - N/A   Overcast
7:35 PM 57.2 °F 46.4 °F 67% 30.28 in 10.0 mi NNE 10.4 mph - N/A   Partly Cloudy
7:55 PM 57.2 °F 46.4 °F 67% 30.28 in 10.0 mi NNE 8.1 mph - N/A   Mostly Cloudy
8:15 PM 57.2 °F 46.4 °F 67% 30.28 in 10.0 mi North 6.9 mph - N/A   Overcast
8:35 PM 57.2 °F 44.6 °F 63% 30.28 in 10.0 mi North 9.2 mph - N/A   Overcast
8:55 PM 57.2 °F 44.6 °F 63% 30.28 in 8.0 mi North 8.1 mph - N/A   Overcast
9:15 PM 57.2 °F 44.6 °F 63% 30.28 in 10.0 mi North 9.2 mph - N/A   Overcast
9:35 PM 57.2 °F 44.6 °F 63% 30.28 in 10.0 mi North 6.9 mph - N/A   Overcast
9:55 PM 57.2 °F 44.6 °F 63% 30.28 in 10.0 mi North 5.8 mph - N/A   Overcast
10:15 PM 57.2 °F 44.6 °F 63% 30.28 in 10.0 mi North 10.4 mph - N/A   Overcast
10:35 PM 57.2 °F 44.6 °F 63% 30.28 in 10.0 mi North 10.4 mph - N/A   Overcast
10:55 PM 57.2 °F 44.6 °F 63% 30.28 in 10.0 mi North 12.7 mph 17.3 mph N/A   Overcast
11:15 PM 55.4 °F 46.4 °F 72% 30.28 in 10.0 mi NNE 11.5 mph 26.5 mph N/A   Overcast
11:35 PM 55.4 °F 46.4 °F 72% 30.28 in 10.0 mi North 13.8 mph 24.2 mph N/A   Overcast
11:55 PM 53.6 °F 46.4 °F 77% 30.27 in 10.0 mi North 11.5 mph - N/A   Overcast